Sigfox identifier Datetime Temperature Humidity SNR
002EEC53 2019-04-23 15:06:24 21.4 30 20.2
002EEC53 2019-04-23 14:34:57 21.5 30 20.4
002EEC53 2019-04-23 14:03:27 21.4 30 20.7
002EEC53 2019-04-23 13:31:57 21.4 30 20.9
002EEC53 2019-04-23 13:00:28 21.4 30 21.1
002EEC53 2019-04-23 12:28:59 21.4 30 21.5
002EEC53 2019-04-23 11:57:28 21.3 30 21.6
002EEC53 2019-04-23 11:25:57 21.2 30 21.6
002EEC53 2019-04-23 10:54:27 21.2 29 21.8
002EEC53 2019-04-23 10:22:58 21.2 29 22
002EEC53 2019-04-23 09:51:29 21.1 29 21.9
002EEC53 2019-04-23 09:20:01 21 29 22
002EEC53 2019-04-23 08:48:31 21 29 22.2
002EEC53 2019-04-23 08:17:01 21 28 22.3
002EEC53 2019-04-23 07:45:33 21 28 22.3
002EEC53 2019-04-23 07:14:03 21 28 22.3
002EEC53 2019-04-23 06:42:36 21 28 22.1
002EEC53 2019-04-23 06:11:06 21 28 21.9
002EEC53 2019-04-23 05:39:37 21 28 21.8
002EEC53 2019-04-23 05:08:09 21 28 22.1
002EEC53 2019-04-23 04:36:42 21 28 22.1
002EEC53 2019-04-23 04:05:10 21 28 22.2
002EEC53 2019-04-23 03:33:43 21 28 22.1
002EEC53 2019-04-23 03:02:14 21 28 22.2
002EEC53 2019-04-23 02:30:45 21 28 22.2
002EEC53 2019-04-23 01:59:17 21 28 22.2
002EEC53 2019-04-23 01:27:49 21 28 22
002EEC53 2019-04-23 00:56:21 21 28 21.9
002EEC53 2019-04-23 00:24:51 21 28 21.7
002EEC53 2019-04-22 23:53:22 21 28 22.6
002EEC53 2019-04-22 23:21:54 21 28 22.4
002EEC53 2019-04-22 22:50:25 21 28 22.5
002EEC53 2019-04-22 22:18:57 21 28 22.6
002EEC53 2019-04-22 21:47:29 21 28 22.7
002EEC53 2019-04-22 21:16:00 21 28 22.6
002EEC53 2019-04-22 20:44:31 21 28 22.6
002EEC53 2019-04-22 20:13:03 20.9 28 22.6
002EEC53 2019-04-22 19:41:34 21 29 22.7
002EEC53 2019-04-22 19:10:06 21 28 22.6
002EEC53 2019-04-22 18:38:36 20.9 28 22.7
002EEC53 2019-04-22 18:07:09 21 29 22.9
002EEC53 2019-04-22 17:35:41 21 29 23.1
002EEC53 2019-04-22 17:04:12 21 29 23.2
002EEC53 2019-04-22 16:32:45 21 29 23.4
002EEC53 2019-04-22 16:01:15 21 28 23.3
002EEC53 2019-04-22 15:29:47 21 28 23.3
002EEC53 2019-04-22 14:58:18 21 28 23.4
002EEC53 2019-04-22 14:26:49 21 28 23.4
002EEC53 2019-04-22 13:55:21 21 28 23.4
002EEC53 2019-04-22 13:23:52 21 28 23.4
002EEC53 2019-04-22 12:52:22 21 28 23.4
002EEC53 2019-04-22 12:20:54 21 28 23.4
002EEC53 2019-04-22 11:49:25 21 28 23.6
002EEC53 2019-04-22 11:17:56 21 28 23.6
002EEC53 2019-04-22 10:46:28 21 27 22.9
002EEC53 2019-04-22 10:14:59 21 27 23
002EEC53 2019-04-22 09:43:30 21 27 22.8
002EEC53 2019-04-22 09:12:03 21 27 22.9
002EEC53 2019-04-22 08:40:34 21 27 22.6
002EEC53 2019-04-22 08:09:07 21 27 22.6
002EEC53 2019-04-22 07:37:39 21 27 22.7
002EEC53 2019-04-22 07:06:11 21 27 22.6
002EEC53 2019-04-22 06:34:43 21 27 22.8
002EEC53 2019-04-22 06:03:16 21 27 22.7
002EEC53 2019-04-22 05:31:49 21 27 22.8
002EEC53 2019-04-22 05:00:20 21 27 22.9
002EEC53 2019-04-22 04:28:52 21 27 23
002EEC53 2019-04-22 03:57:25 21.1 27 22.9
002EEC53 2019-04-22 03:25:58 21.1 27 22.7
002EEC53 2019-04-22 02:54:31 21.2 27 22.8
002EEC53 2019-04-22 02:23:04 21.2 27 22.7
002EEC53 2019-04-22 01:51:37 21.2 27 22.5
002EEC53 2019-04-22 01:20:10 21.2 27 22.4
002EEC53 2019-04-22 00:48:42 21.2 27 22.4
002EEC53 2019-04-22 00:17:15 21.2 27 22.4
002EEC53 2019-04-21 23:45:47 21.2 27 22.6
002EEC53 2019-04-21 23:14:20 21.2 27 22.6
002EEC53 2019-04-21 22:42:50 21.2 27 23.2
002EEC53 2019-04-21 22:11:22 21.2 27 23.3
002EEC53 2019-04-21 21:39:57 21.2 27 23.3
002EEC53 2019-04-21 21:08:25 21.2 27 23.4
002EEC53 2019-04-21 20:36:58 21.2 27 23.5
002EEC53 2019-04-21 20:05:30 21.2 27 23.3
002EEC53 2019-04-21 19:34:03 21.2 27 24.1
002EEC53 2019-04-21 19:02:35 21.2 27 24.1
002EEC53 2019-04-21 18:31:06 21.2 27 24
002EEC53 2019-04-21 17:59:36 21.2 27 23.9
002EEC53 2019-04-21 17:28:08 21.2 27 23.8
002EEC53 2019-04-21 16:56:39 21.1 27 23.7
002EEC53 2019-04-21 16:25:11 21.1 27 24.2
002EEC53 2019-04-21 15:53:39 21 27 24
002EEC53 2019-04-21 15:22:10 21 27 24
002EEC53 2019-04-21 14:50:40 21 27 23.9
002EEC53 2019-04-21 14:19:09 21 27 24
002EEC53 2019-04-21 13:47:39 21 27 24.2
002EEC53 2019-04-21 13:16:09 21 27 24.4
002EEC53 2019-04-21 12:44:38 21 27 24.6
002EEC53 2019-04-21 12:13:08 21 27 24.6
002EEC53 2019-04-21 11:41:38 21 27 24.6
002EEC53 2019-04-21 11:10:08 21 27 24.5
002EEC53 2019-04-21 10:38:39 21 27 24.5
002EEC53 2019-04-21 10:07:09 21 27 24
002EEC53 2019-04-21 09:35:39 21 27 24
002EEC53 2019-04-21 09:04:08 21 27 24
002EEC53 2019-04-21 08:32:39 21 27 23.9
002EEC53 2019-04-21 08:01:10 21 27 23.7
002EEC53 2019-04-21 07:29:41 21 27 23.8
002EEC53 2019-04-21 06:58:13 21 27 23.1
002EEC53 2019-04-21 06:26:44 21 27 23.2
002EEC53 2019-04-21 05:55:16 21 27 23.2
002EEC53 2019-04-21 05:23:47 21 27 23.5
002EEC53 2019-04-21 04:52:20 21 27 23.5
002EEC53 2019-04-21 04:20:52 21 27 23.3
002EEC53 2019-04-21 03:49:24 21 27 23.2
002EEC53 2019-04-21 03:17:54 21 27 22.4
002EEC53 2019-04-21 02:46:26 21 27 22.3
002EEC53 2019-04-21 02:14:57 21 26 22.3
002EEC53 2019-04-21 01:43:28 21 26 22.3
002EEC53 2019-04-21 01:12:00 21 26 22
002EEC53 2019-04-21 00:40:30 21 26 21.6
002EEC53 2019-04-21 00:09:02 21 26 21.5
002EEC53 2019-04-20 23:37:33 21 26 21.2
002EEC53 2019-04-20 23:06:05 21 26 21.1
002EEC53 2019-04-20 22:34:36 21 26 20.9
002EEC53 2019-04-20 22:03:06 21 26 21
002EEC53 2019-04-20 21:31:38 21 26 20.6
002EEC53 2019-04-20 21:00:08 21 26 20.5
002EEC53 2019-04-20 20:28:40 21 26 20.4
002EEC53 2019-04-20 19:57:11 21.1 25 20.5
002EEC53 2019-04-20 19:25:41 21.1 25 20.4
002EEC53 2019-04-20 18:54:12 21.1 25 20.6
002EEC53 2019-04-20 18:22:43 21 25 20.6
002EEC53 2019-04-20 17:51:13 21 25 20.5
002EEC53 2019-04-20 17:19:46 21.1 25 20
002EEC53 2019-04-20 16:48:18 21 25 20.3
002EEC53 2019-04-20 16:16:53 21.1 25 19.9
002EEC53 2019-04-20 15:45:24 21.1 25 20
002EEC53 2019-04-20 15:13:57 21 25 20.2
002EEC53 2019-04-20 14:42:32 21 25 20.3
002EEC53 2019-04-20 14:11:01 21 25 20.4
002EEC53 2019-04-20 13:39:33 21 25 20.5
002EEC53 2019-04-20 13:08:05 21 25 20.4
002EEC53 2019-04-20 12:36:38 21 25 20.5
002EEC53 2019-04-20 12:05:10 21 25 20.6
002EEC53 2019-04-20 11:33:42 21 24 20.8
002EEC53 2019-04-20 11:02:14 21 24 20.6
002EEC53 2019-04-20 10:30:46 21 24 21.8
002EEC53 2019-04-20 09:59:18 21 24 21.9
002EEC53 2019-04-20 09:27:49 21 24 21.8
002EEC53 2019-04-20 08:56:21 21 24 21.6
002EEC53 2019-04-20 08:24:57 21 24 21.9
002EEC53 2019-04-20 07:53:25 21 24 22
002EEC53 2019-04-20 07:21:57 21 24 22.1
002EEC53 2019-04-20 06:50:29 21 24 21.9
002EEC53 2019-04-20 06:18:59 21 24 21.8
002EEC53 2019-04-20 05:47:32 21 24 21.9
002EEC53 2019-04-20 05:16:04 21 24 21.9
002EEC53 2019-04-20 04:44:36 20.9 24 22.1
002EEC53 2019-04-20 04:13:09 20.9 24 22.1
002EEC53 2019-04-20 03:41:41 20.9 24 22.3
002EEC53 2019-04-20 03:10:13 21 24 22.3
002EEC53 2019-04-20 02:38:44 20.9 24 22.2
002EEC53 2019-04-20 02:07:16 20.8 24 22.2
002EEC53 2019-04-20 01:35:49 20.8 24 22.2
002EEC53 2019-04-20 01:04:21 20.8 24 22.1
002EEC53 2019-04-20 00:32:52 20.7 24 21.9
002EEC53 2019-04-20 00:01:22 20.7 24 22
002EEC53 2019-04-19 23:29:53 20.7 24 22.2
002EEC53 2019-04-19 22:58:24 20.7 24 22.2
002EEC53 2019-04-19 22:26:55 20.7 24 22.2
002EEC53 2019-04-19 21:55:26 20.8 24 22.3
002EEC53 2019-04-19 21:23:57 20.9 24 21.3
002EEC53 2019-04-19 20:52:28 20.9 24 21.3
002EEC53 2019-04-19 20:20:59 20.7 24 21.4
002EEC53 2019-04-19 19:49:32 20.7 24 21.6
002EEC53 2019-04-19 19:18:01 20.7 24 21.5
002EEC53 2019-04-19 18:46:34 20.7 24 21.5
002EEC53 2019-04-19 18:15:06 20.7 24 21.3
002EEC53 2019-04-19 17:43:39 20.7 24 21.4
002EEC53 2019-04-19 17:12:12 20.7 24 21.4
002EEC53 2019-04-19 16:40:45 20.7 24 21.2
002EEC53 2019-04-19 16:09:18 20.7 24 21.4
002EEC53 2019-04-19 15:37:51 20.7 24 21.3
002EEC53 2019-04-19 15:06:23 20.7 24 21.3
002EEC53 2019-04-19 14:34:56 20.7 24 21.2
002EEC53 2019-04-19 14:03:29 20.7 24 21.2
002EEC53 2019-04-19 13:32:02 20.7 24 21.3
002EEC53 2019-04-19 13:00:34 20.7 24 21.1
002EEC53 2019-04-19 12:29:06 20.7 25 21.3
002EEC53 2019-04-19 11:57:37 20.8 25 22.4
002EEC53 2019-04-19 11:26:09 20.9 25 22.4
002EEC53 2019-04-19 10:54:43 21 25 22.4
002EEC53 2019-04-19 10:23:15 21 25 22.2
002EEC53 2019-04-19 09:51:47 21 25 22.1
002EEC53 2019-04-19 09:20:19 21 26 21.9
002EEC53 2019-04-19 08:48:52 21 26 22.7
002EEC53 2019-04-19 08:17:22 21 26 22.7
002EEC53 2019-04-19 07:45:53 21 26 22.8
002EEC53 2019-04-19 07:14:25 21 26 22.7
002EEC53 2019-04-19 06:42:57 21 26 22.7
002EEC53 2019-04-19 06:11:29 21 26 22.7
002EEC53 2019-04-19 05:40:01 21 26 22.7
002EEC53 2019-04-19 05:08:32 21.1 26 22.7
002EEC53 2019-04-19 04:37:06 21.2 26 22.6
002EEC53 2019-04-19 04:05:36 21.2 26 22.6
002EEC53 2019-04-19 03:34:09 21.2 26 22.5
002EEC53 2019-04-19 03:02:42 21.2 26 23.2
002EEC53 2019-04-19 02:31:15 21.2 26 23.9
002EEC53 2019-04-19 01:59:48 21.2 26 24.5
002EEC53 2019-04-19 01:28:20 21.2 26 24.9
002EEC53 2019-04-19 00:56:51 21.2 26 25.4
002EEC53 2019-04-19 00:25:24 21.2 26 25.4
002EEC53 2019-04-18 23:53:55 21.2 26 25.4
002EEC53 2019-04-18 23:22:26 21.2 26 25.4
002EEC53 2019-04-18 22:50:57 21.2 26 25.1
002EEC53 2019-04-18 22:19:29 21.2 26 25.2
002EEC53 2019-04-18 21:48:00 21.2 26 25.2
002EEC53 2019-04-18 21:16:32 21.2 26 25.3
002EEC53 2019-04-18 20:45:04 21.2 26 25.3
002EEC53 2019-04-18 20:13:36 21.2 26 25.4
002EEC53 2019-04-18 19:42:08 21.2 26 24.9
002EEC53 2019-04-18 19:10:41 21.2 26 24.9
002EEC53 2019-04-18 18:39:13 21.2 26 24.9
002EEC53 2019-04-18 18:07:45 21.2 26 24.9
002EEC53 2019-04-18 17:36:16 21.3 26 24.9
002EEC53 2019-04-18 17:04:48 21.4 26 25
002EEC53 2019-04-18 16:33:20 21.4 26 25
002EEC53 2019-04-18 16:01:51 21.4 26 25.1
002EEC53 2019-04-18 15:30:23 21.4 26 25.2
002EEC53 2019-04-18 14:58:57 21.4 26 25.3
002EEC53 2019-04-18 14:27:29 21.4 26 25.4
002EEC53 2019-04-18 13:55:59 21.5 26 24.9
002EEC53 2019-04-18 13:24:32 21.6 26 24.5
002EEC53 2019-04-18 12:53:06 21.8 26 23.8
002EEC53 2019-04-18 12:21:39 22 25 23.3
002EEC53 2019-04-18 11:50:12 22.2 22 22.5
002EEC53 2019-04-18 11:18:45 22.2 22 22.6
002EEC53 2019-04-18 10:47:20 22.2 23 22.8
002EEC53 2019-04-18 10:15:53 22.1 23 22.8
002EEC53 2019-04-18 09:44:25 22 23 22.8
002EEC53 2019-04-18 09:12:57 22 22 22.8
002EEC53 2019-04-18 08:41:30 22.1 22 22.7
002EEC53 2019-04-18 08:10:05 22.1 22 22.9
002EEC53 2019-04-18 07:38:38 22 22 23.4
002EEC53 2019-04-18 07:07:12 22 22 23.5
002EEC53 2019-04-18 06:35:45 22 23 23.7
002EEC53 2019-04-18 06:04:18 22 23 24.1
002EEC53 2019-04-18 05:32:52 22.1 23 24.1
002EEC53 2019-04-18 05:01:24 22.2 23 24.1
002EEC53 2019-04-18 04:29:58 22.2 23 24.3
002EEC53 2019-04-18 03:58:31 22.2 23 24.2
002EEC53 2019-04-18 03:27:05 22.2 23 24.3
002EEC53 2019-04-18 02:55:37 22.2 23 24.8
002EEC53 2019-04-18 02:24:09 22.2 23 24.8
002EEC53 2019-04-18 01:52:41 22.3 23 24.8
002EEC53 2019-04-18 01:21:15 22.2 23 24.9
002EEC53 2019-04-18 00:49:48 22.2 23 25
002EEC53 2019-04-18 00:18:20 22.3 23 25.4
002EEC53 2019-04-17 23:46:53 22.5 23 25.6
002EEC53 2019-04-17 23:15:26 22.5 23 25.5
002EEC53 2019-04-17 22:43:58 22.5 23 25.5
002EEC53 2019-04-17 22:12:32 22.5 23 25.6
002EEC53 2019-04-17 21:41:04 22.5 23 25.5
002EEC53 2019-04-17 21:09:37 22.6 23 25.5
002EEC53 2019-04-17 20:38:09 22.7 23 25.4
002EEC53 2019-04-17 20:06:43 22.7 23 25.4
002EEC53 2019-04-17 19:35:18 22.7 23 25.4
002EEC53 2019-04-17 19:03:52 22.7 23 25.3
002EEC53 2019-04-17 18:32:24 22.8 22 25
002EEC53 2019-04-17 18:00:58 22.8 22 25
002EEC53 2019-04-17 17:29:30 22.9 22 24.8
002EEC53 2019-04-17 16:58:03 22.9 22 24.6
002EEC53 2019-04-17 16:26:37 22.9 23 24.7
002EEC53 2019-04-17 15:55:10 22.9 23 24.7
002EEC53 2019-04-17 15:23:43 22.8 23 24.7
002EEC53 2019-04-17 14:52:15 22.7 24 24.7
002EEC53 2019-04-17 14:20:48 22.7 24 24.6
002EEC53 2019-04-17 13:49:20 22.7 24 24.3
002EEC53 2019-04-17 13:17:52 22.5 24 24.2
002EEC53 2019-04-17 12:46:24 22.5 24 24.4
002EEC53 2019-04-17 12:14:56 22.3 23 24.2
002EEC53 2019-04-17 11:43:28 22.2 23 24.3
002EEC53 2019-04-17 11:12:01 22.2 23 23.8
002EEC53 2019-04-17 10:40:33 22.1 22 23.9
002EEC53 2019-04-17 10:09:05 22 22 24
002EEC53 2019-04-17 09:37:37 22.1 22 24.2
002EEC53 2019-04-17 09:06:08 22 22 24.1
002EEC53 2019-04-17 08:34:39 22 22 24.3
002EEC53 2019-04-17 08:03:11 22 21 24.4
002EEC53 2019-04-17 07:31:42 22 20 24.5
002EEC53 2019-04-17 07:00:15 22 20 24.5
002EEC53 2019-04-17 06:28:47 22 20 24.4
002EEC53 2019-04-17 05:57:18 22 20 24.6
002EEC53 2019-04-17 05:25:50 22 20 24.6
002EEC53 2019-04-17 04:54:22 22 21 24.7
002EEC53 2019-04-17 04:22:53 22 21 24.8
002EEC53 2019-04-17 03:51:25 22 21 24.7
002EEC53 2019-04-17 03:19:57 22 21 24.7
002EEC53 2019-04-17 02:48:30 22 21 24.8
002EEC53 2019-04-17 02:17:00 22.1 21 24.8
002EEC53 2019-04-17 01:45:32 22.1 21 24.9
002EEC53 2019-04-17 01:14:03 22.1 21 24.8
002EEC53 2019-04-17 00:42:35 22.1 21 24.6
002EEC53 2019-04-17 00:11:05 22.2 21 24.5
002EEC53 2019-04-16 23:39:36 22.2 21 24.5
002EEC53 2019-04-16 23:08:07 22.2 21 24.4
002EEC53 2019-04-16 22:36:39 22.2 21 24.2
002EEC53 2019-04-16 22:05:11 22.2 21 24.2
002EEC53 2019-04-16 21:33:45 22.3 21 23.8
002EEC53 2019-04-16 21:02:17 22.3 21 23.8
002EEC53 2019-04-16 20:30:50 22.4 20 23.6
002EEC53 2019-04-16 19:59:22 22.5 20 24.2
002EEC53 2019-04-16 19:27:54 22.4 20 24
002EEC53 2019-04-16 18:56:26 22.4 20 23.8
002EEC53 2019-04-16 18:24:58 22.4 20 23.7
002EEC53 2019-04-16 17:53:29 22.5 19 23.8
002EEC53 2019-04-16 17:22:01 22.6 19 23.9
002EEC53 2019-04-16 16:50:33 22.7 20 23.5
002EEC53 2019-04-16 16:19:05 22.7 20 23.6
002EEC53 2019-04-16 15:47:38 22.7 20 23.7
002EEC53 2019-04-16 15:16:11 22.7 20 23.7
002EEC53 2019-04-16 14:44:43 22.5 20 23.8
002EEC53 2019-04-16 14:13:16 22.5 20 23.8
002EEC53 2019-04-16 13:41:50 22.5 19 23.6
002EEC53 2019-04-16 13:10:23 22.3 19 23.6
002EEC53 2019-04-16 12:38:56 22.2 19 23.4
002EEC53 2019-04-16 12:07:30 22.2 19 23.7
002EEC53 2019-04-16 11:36:04 22.2 19 23.7
002EEC53 2019-04-16 11:04:39 22.1 19 23.8
002EEC53 2019-04-16 10:33:12 22 19 23.7
002EEC53 2019-04-16 10:01:45 22 19 23.8
002EEC53 2019-04-16 09:30:18 22 19 23.8
002EEC53 2019-04-16 08:58:52 22 19 23.9
002EEC53 2019-04-16 08:27:27 22 19 24.1
002EEC53 2019-04-16 07:56:01 22 18 24.2
002EEC53 2019-04-16 07:24:35 22 18 24.2
002EEC53 2019-04-16 06:53:09 22 18 23.7
002EEC53 2019-04-16 06:21:42 22 18 23.6
002EEC53 2019-04-16 05:50:16 22 18 24.3
002EEC53 2019-04-16 05:18:50 22 18 24.2
002EEC53 2019-04-16 04:47:24 22 18 24.4
002EEC53 2019-04-16 04:15:58 22 18 24.4
002EEC53 2019-04-16 03:44:31 22 18 24.6
002EEC53 2019-04-16 03:13:04 22 18 24.6
002EEC53 2019-04-16 02:41:37 22 18 24.4
002EEC53 2019-04-16 02:10:10 22 18 24.5
002EEC53 2019-04-16 01:38:43 22 18 24.7
002EEC53 2019-04-16 01:07:16 22 18 24.6
002EEC53 2019-04-16 00:35:50 22 18 24.6
002EEC53 2019-04-16 00:04:23 22 18 24.5
002EEC53 2019-04-15 23:32:56 22.1 18 25
002EEC53 2019-04-15 23:01:28 22.2 18 25
002EEC53 2019-04-15 22:30:02 22.2 18 25
002EEC53 2019-04-15 21:58:34 22.2 18 24.9
002EEC53 2019-04-15 21:27:07 22.2 17 24.9
002EEC53 2019-04-15 20:55:39 22.3 17 24.9
002EEC53 2019-04-15 20:24:10 22.4 17 25
002EEC53 2019-04-15 19:52:43 22.4 17 25
002EEC53 2019-04-15 19:21:16 22.3 17 25
002EEC53 2019-04-15 18:49:48 22.4 16 24.9
002EEC53 2019-04-15 18:18:21 22.5 16 24.9
002EEC53 2019-04-15 17:46:52 22.5 16 24.9
002EEC53 2019-04-15 17:15:24 22.6 16 25
002EEC53 2019-04-15 16:43:58 22.6 16 24.6
002EEC53 2019-04-15 16:12:31 22.7 16 24.7
002EEC53 2019-04-15 15:41:06 22.6 16 24.7
002EEC53 2019-04-15 15:09:39 22.6 16 24.6
002EEC53 2019-04-15 14:38:13 22.5 17 24.6
002EEC53 2019-04-15 14:06:47 22.5 17 24.6
002EEC53 2019-04-15 13:35:20 22.4 17 24.8
002EEC53 2019-04-15 13:03:53 22.2 17 24.8
002EEC53 2019-04-15 12:32:26 22.2 17 24.7
002EEC53 2019-04-15 12:00:59 22.2 17 24.7
002EEC53 2019-04-15 11:29:33 22 17 24.8
002EEC53 2019-04-15 10:58:06 22 17 24.9
002EEC53 2019-04-15 10:26:40 22 18 24.4
002EEC53 2019-04-15 09:55:14 22 18 24.4
002EEC53 2019-04-15 09:23:48 22 18 24.7
002EEC53 2019-04-15 08:52:21 21.8 18 24.7
002EEC53 2019-04-15 08:20:55 21.8 18 24.9
002EEC53 2019-04-15 07:49:28 21.8 18 25
002EEC53 2019-04-15 07:18:00 21.8 18 25
002EEC53 2019-04-15 06:46:33 21.8 18 24.9
002EEC53 2019-04-15 06:15:06 21.8 18 24.8
002EEC53 2019-04-15 05:43:39 21.7 18 24.9
002EEC53 2019-04-15 05:12:12 21.6 18 25.1
002EEC53 2019-04-15 04:40:46 21.7 18 25.1
002EEC53 2019-04-15 04:09:19 21.7 18 25.2
002EEC53 2019-04-15 03:37:50 21.7 18 25.2
002EEC53 2019-04-15 03:06:24 21.8 19 25.2
002EEC53 2019-04-15 02:34:56 21.7 19 25.2
002EEC53 2019-04-15 02:03:28 21.7 19 25.1
002EEC53 2019-04-15 01:32:00 21.7 19 25.1
002EEC53 2019-04-15 01:00:33 21.7 19 25.1
002EEC53 2019-04-15 00:29:07 21.7 19 24.9
002EEC53 2019-04-14 23:57:40 21.8 19 24.9
002EEC53 2019-04-14 23:26:12 21.8 19 24.8
002EEC53 2019-04-14 22:54:44 21.8 19 24.7
002EEC53 2019-04-14 22:23:17 21.8 19 24.7
002EEC53 2019-04-14 21:51:49 21.8 19 24.8
002EEC53 2019-04-14 21:20:21 21.9 19 24.8
002EEC53 2019-04-14 20:48:53 22 19 24.6
002EEC53 2019-04-14 20:17:25 22 19 24.5
002EEC53 2019-04-14 19:45:56 22 19 24.6
002EEC53 2019-04-14 19:14:28 22 19 24.5
002EEC53 2019-04-14 18:43:01 21.8 19 24.5
002EEC53 2019-04-14 18:11:34 21.8 19 24.6
002EEC53 2019-04-14 17:40:07 21.8 19 24.6
002EEC53 2019-04-14 17:08:39 21.8 19 24.5
002EEC53 2019-04-14 16:37:11 21.8 19 24.6
002EEC53 2019-04-14 16:05:44 21.8 19 24.6
002EEC53 2019-04-14 15:34:18 21.8 19 24.7
002EEC53 2019-04-14 15:02:50 21.8 19 24.6
002EEC53 2019-04-14 14:31:22 21.8 19 24.5
002EEC53 2019-04-14 13:59:55 21.8 19 24.5
002EEC53 2019-04-14 13:28:28 21.8 19 24.5
002EEC53 2019-04-14 12:57:02 21.8 20 24.5
002EEC53 2019-04-14 12:25:35 21.8 20 24.9
002EEC53 2019-04-14 11:54:08 21.8 20 25
002EEC53 2019-04-14 11:22:40 21.8 20 25.2
002EEC53 2019-04-14 10:51:12 21.8 20 25.3
002EEC53 2019-04-14 10:19:45 21.8 20 25.5
002EEC53 2019-04-14 09:48:17 21.8 19 25.6
002EEC53 2019-04-14 09:16:49 21.8 19 25.7
002EEC53 2019-04-14 08:45:23 21.8 19 25.7
002EEC53 2019-04-14 08:13:55 21.8 19 25.6
002EEC53 2019-04-14 07:42:28 21.8 19 25.6
002EEC53 2019-04-14 07:11:00 21.8 19 25.7
002EEC53 2019-04-14 06:39:33 21.8 19 25.8
002EEC53 2019-04-14 06:08:05 21.8 19 25.8
002EEC53 2019-04-14 05:36:38 21.8 19 25.9
002EEC53 2019-04-14 05:05:10 21.8 19 25.8
002EEC53 2019-04-14 04:33:43 21.8 19 25.8
002EEC53 2019-04-14 04:02:16 21.8 19 25.9
002EEC53 2019-04-14 03:30:50 21.8 19 25.9
002EEC53 2019-04-14 02:59:24 21.8 19 25.7
002EEC53 2019-04-14 02:27:57 21.8 19 25.6
002EEC53 2019-04-14 01:56:30 21.8 19 25.6
002EEC53 2019-04-14 01:25:03 21.9 19 25.7
002EEC53 2019-04-14 00:53:35 21.8 19 25.6
002EEC53 2019-04-14 00:22:08 21.9 19 25.5
002EEC53 2019-04-13 23:50:40 22 19 25.6
002EEC53 2019-04-13 23:19:12 22 19 25.2
002EEC53 2019-04-13 22:47:45 22 19 25.2
002EEC53 2019-04-13 22:16:16 22 19 25
002EEC53 2019-04-13 21:44:49 22 19 24.9
002EEC53 2019-04-13 21:13:22 22 19 24.7
002EEC53 2019-04-13 20:41:54 22 19 24.7
002EEC53 2019-04-13 20:10:26 22 19 24.6
002EEC53 2019-04-13 19:38:59 22 19 24.5
002EEC53 2019-04-13 19:07:32 22.1 19 24.6
002EEC53 2019-04-13 18:36:04 22.1 19 24.7
002EEC53 2019-04-13 18:04:37 22.1 19 24.7
002EEC53 2019-04-13 17:33:10 22.2 19 24.5
002EEC53 2019-04-13 17:01:42 22.2 19 24.3
002EEC53 2019-04-13 16:30:15 22.2 19 24.2
002EEC53 2019-04-13 15:58:47 22.2 19 24.1
002EEC53 2019-04-13 15:27:19 22.2 19 24.2
002EEC53 2019-04-13 14:55:52 22.2 19 24.1
002EEC53 2019-04-13 14:24:23 22.2 19 24.1
002EEC53 2019-04-13 13:52:55 22.2 19 24.2
002EEC53 2019-04-13 13:21:26 22.2 19 24.2
002EEC53 2019-04-13 12:49:59 22.2 19 24.4
002EEC53 2019-04-13 12:18:31 22.2 19 24.7
002EEC53 2019-04-13 11:47:03 22.2 19 24.8
002EEC53 2019-04-13 11:15:36 22.2 19 24.9
002EEC53 2019-04-13 10:44:07 22.2 19 24.8
002EEC53 2019-04-13 10:12:40 22.2 19 24.9
002EEC53 2019-04-13 09:41:12 22.2 19 24.8
002EEC53 2019-04-13 09:09:45 22.2 19 24.9
002EEC53 2019-04-13 08:38:16 22.2 19 24.8
002EEC53 2019-04-13 08:06:48 22.2 19 24.8
002EEC53 2019-04-13 07:35:20 22.2 19 24.9
002EEC53 2019-04-13 07:03:52 22.2 19 25
002EEC53 2019-04-13 06:32:24 22.2 19 25
002EEC53 2019-04-13 06:00:56 22.2 19 24.9
002EEC53 2019-04-13 05:29:28 22.2 19 24.9
002EEC53 2019-04-13 04:58:00 22.2 19 24.8
002EEC53 2019-04-13 04:26:33 22.2 19 24.8
002EEC53 2019-04-13 03:55:04 22.2 19 24.8
002EEC53 2019-04-13 03:23:35 22.2 19 25.2
002EEC53 2019-04-13 02:52:08 22.3 19 25.6
002EEC53 2019-04-13 02:20:39 22.5 19 25.6
002EEC53 2019-04-13 01:49:10 22.5 19 25.4
002EEC53 2019-04-13 01:17:42 22.5 19 25.5
002EEC53 2019-04-13 00:46:15 22.5 20 25.5
002EEC53 2019-04-13 00:14:47 22.5 20 25.5
002EEC53 2019-04-12 23:43:20 22.5 20 25.5
002EEC53 2019-04-12 23:11:51 22.5 20 25.1
002EEC53 2019-04-12 22:40:24 22.6 20 25
002EEC53 2019-04-12 22:08:57 22.7 20 25.1
002EEC53 2019-04-12 21:37:30 22.7 20 25.2
002EEC53 2019-04-12 21:06:02 22.7 20 25.2
002EEC53 2019-04-12 20:34:34 22.7 20 25.3
002EEC53 2019-04-12 20:03:06 22.7 20 25.2
002EEC53 2019-04-12 19:31:38 22.7 19 25.5
002EEC53 2019-04-12 19:00:11 22.8 19 25.6
002EEC53 2019-04-12 18:28:43 22.9 17 25.5
002EEC53 2019-04-12 17:57:16 22.9 17 25.4
002EEC53 2019-04-12 17:25:50 22.9 18 25.6
002EEC53 2019-04-12 16:54:22 22.9 18 25.8
002EEC53 2019-04-12 16:22:56 22.9 19 26
002EEC53 2019-04-12 15:51:29 22.8 19 26.4
002EEC53 2019-04-12 15:19:59 22.7 19 26.8
002EEC53 2019-04-12 14:48:31 22.5 19 27.4
002EEC53 2019-04-12 14:17:04 22.2 20 26
002EEC53 2019-04-12 13:45:36 21.7 21 20.1
002EEC53 2019-04-12 13:14:08 21 22 14.9